Flag for Netherlands Weather past 2 weeks in Groningen, Netherlands

Now
68 °F

Clear.


Feels Like: 68 °F
Forecast: 62 / 75 °F
Wind: 9 mph from East

Location: Groningen Eelde Airport

Current Time: Jul 28, 2014 at 9:55:02 AM

Latest Report: Jul 28, 2014 at 9:25 AM


Visibility: N/A

Pressure: 29.95 "Hg

Humidity: 88%

Dew point: 64 °F

Location of GroningenLocation

Historic Weather in Groningen — Graph

°F

Groningen temperature yesterday

Maximum temperature yesterday: 77 °F (at 4:55 PM)
Minimum temperature yesterday: 61 °F (at 4:25 AM)
Average temperature yesterday: 69 °F

Past Weeks' High & Low Weather Summary

 TemperatureHumidityPressure
High93 °F (Jul 19, 1:25 PM)100% (Jul 15, 11:55 PM)30.18 "Hg (Jul 15, 11:55 PM)
Low50 °F (Jul 16, 4:55 AM)26% (Jul 19, 1:55 PM)29.65 "Hg (Jul 13, 6:55 PM)
Average69 °F76%29.98 "Hg
* Reported Jul 13 8:25 AM — Jul 28 8:55 AM, Groningen, Weather by CustomWeather, © 2014

Note: Actual official high and low records may vary slightly from our data, if they occured in-between our weather recording intervals... More about our weather records

Advertising

Groningen weather history for previous 24 hours

 ConditionsComfort  
Time TempWeatherWind HumidityBarometerVisibility
8:55 AM
Jul 28
66 °FMild.12 mph94%29.95 "HgN/A
8:25 AM66 °FClear.12 mph94%29.95 "Hg5 mi
7:55 AM64 °FFog.6 mph94%29.95 "Hg3 mi
7:25 AM64 °FFog.6 mph94%29.95 "Hg3 mi
6:55 AM64 °FMore clouds than sun.1 mph94%29.95 "Hg4 mi
6:25 AM63 °FLow clouds.2 mph100%29.95 "Hg4 mi
5:55 AM63 °FFog.5 mph100%29.95 "Hg3 mi
5:25 AM63 °FMostly cloudy.3 mph94%29.95 "Hg4 mi
4:25 AM61 °FFog.No wind94%29.95 "Hg1 mi
3:55 AM59 °FFog.1 mph100%29.95 "Hg1 mi
3:25 AM61 °FClear.No wind94%29.95 "Hg4 mi
2:55 AM59 °FFog.2 mph100%29.95 "Hg2 mi
2:25 AM61 °FPassing clouds.1 mph94%29.98 "Hg4 mi
1:55 AM61 °FFog.2 mph100%29.98 "Hg3 mi
1:25 AM61 °FCool.2 mph100%29.98 "Hg4 mi
12:55 AM63 °FClear.3 mph94%29.98 "Hg6 mi
12:25 AM63 °FMild.2 mph94%29.98 "HgN/A
11:55 PM
Jul 27
63 °FClear.2 mph94%29.98 "HgN/A
11:25 PM64 °FClear.3 mph94%29.98 "HgN/A
10:55 PM64 °FPassing clouds.6 mph94%29.98 "HgN/A
10:25 PM64 °FPassing clouds.6 mph94%30.01 "HgN/A
9:55 PM64 °FClear.5 mph94%30.01 "HgN/A
9:25 PM66 °FClear.6 mph88%29.98 "HgN/A
8:55 PM68 °FMild.9 mph83%29.98 "HgN/A
8:25 PM70 °FMild.10 mph78%29.98 "HgN/A
7:55 PM72 °FMild.13 mph73%29.95 "HgN/A
7:25 PM73 °FMild.10 mph69%29.95 "HgN/A
6:55 PM75 °FScattered clouds.10 mph69%29.95 "HgN/A
6:25 PM73 °FBroken clouds.8 mph74%29.95 "HgN/A
5:55 PM77 °FClear.8 mph65%29.95 "HgN/A
5:25 PM77 °FPassing clouds.8 mph65%29.95 "HgN/A
4:55 PM77 °FPartly sunny.8 mph69%29.95 "HgN/A
4:25 PM75 °FBroken clouds.8 mph69%29.95 "HgN/A
3:55 PM75 °FClear.8 mph74%29.95 "HgN/A
3:25 PM75 °FBroken clouds.9 mph69%29.95 "HgN/A
2:55 PM75 °FBroken clouds.9 mph69%29.95 "HgN/A
2:25 PM75 °FPassing clouds.7 mph69%29.95 "HgN/A
1:55 PM75 °FBroken clouds.8 mph74%29.95 "HgN/A
1:25 PM73 °FScattered clouds.7 mph74%29.95 "HgN/A
12:55 PM73 °FPassing clouds.6 mph78%29.95 "HgN/A
12:25 PM72 °FMostly cloudy.9 mph78%29.95 "HgN/A
11:55 AM72 °FBroken clouds.9 mph78%29.95 "HgN/A
11:25 AM73 °FPassing clouds.7 mph78%29.95 "HgN/A
10:55 AM72 °FPassing clouds.8 mph83%29.95 "Hg6 mi
10:25 AM70 °FPartly sunny.6 mph88%29.95 "Hg4 mi
9:55 AM68 °FFog.5 mph94%29.95 "Hg2 mi
9:25 AM68 °FFog.5 mph94%29.95 "Hg1 mi
Weather by CustomWeather, © 2014

See weather overviewHow to use our weather pages